Location: Pace/Milton
(30.6162°N, 87.1503°W)
Time: 10:50:29
(UTC-06:00)

N. Korean satellite - Pass Details

Date: 30 November 2021
Orbit: 447 x 491 km, 97.3° (Epoch: 21 January)

Event Time Altitude Azimuth Distance (km) Brightness Sun altitude
Rises 03:58:00 0° 40° (NE) 2,451 10.5 -31.6°
Reaches altitude 10° 04:01:35 10° 81° (E) 1,570 9.9 -30.8°
Maximum altitude 04:02:22 11° 94° (E) 1,531 10.0 -30.7°
Drops below altitude 10° 04:03:08 10° 107° (ESE) 1,567 10.0 -30.5°
Sets 04:06:41 0° 148° (SSE) 2,432 10.7 -29.8°
